Tracking 20241 objects as of 25-Jan-2020
HD Live streaming from Space Station
objects crossing your sky now

FLOCK 4P 1

Track FLOCK 4P 1 now!
10-day predictions
FLOCK 4P 1 is classified as:


NORAD ID: 44814
Int'l Code: 2019-081L
Perigee: 505.3 km
Apogee: 523.0 km
Inclination: 97.5 °
Period: 94.8 minutes
Semi major axis: 6885 km
RCS: Unknown
Launch date: November 27, 2019
Source: United States (US)
Launch site: SRIHARIKOTA (SRI)
aabbcc
Your satellite tracking list
Your tracking list is empty




NASA's NSSDC Master Catalog

Two Line Element Set (TLE):
1 44814U 19081L   20025.46964920  .00000518  00000-0  27543-4 0  9998
2 44814  97.5164  87.2866 0012826  38.2489 321.9653 15.19612813  9000
Source of the keplerian elements: AFSPC